Location: Minsk
(53.9000°N, 27.5670°E)
Time: 06:51:33
(UTC+03:00)

Envisat - Visible Passes

Search period start: 07 October 2022 00:00
Search period end: 17 October 2022 00:00
Orbit: 764 x 765 km, 98.2° (Epoch: 06 October)

Date Brightness Start Highest point End Pass type
(mag) Time Alt. Az. Time Alt. Az. Time Alt. Az.
07 Oct 5.3 04:29:27 10° NE 04:33:23 22° E 04:37:19 10° SE visible
07 Oct 3.0 06:07:50 10° NNE 06:12:54 69° WNW 06:17:56 10° SSW visible
08 Oct 6.0 03:54:14 10° ENE 03:55:52 11° E 03:57:31 10° E visible
08 Oct 3.4 05:30:51 10° NNE 05:35:55 64° ESE 05:40:58 10° S visible
09 Oct 4.6 04:54:07 10° NNE 04:58:45 34° E 05:03:20 10° SSE visible
09 Oct 3.3 06:33:03 10° N 06:37:54 45° WNW 06:42:43 10° SW visible
10 Oct 5.6 04:17:53 10° NE 04:21:22 18° E 04:24:50 10° SE visible
10 Oct 2.9 05:55:56 10° NNE 06:01:03 83° WNW 06:06:08 10° SSW visible
11 Oct 3.8 05:19:01 10° NNE 05:24:00 52° E 05:28:57 10° S visible
12 Oct 4.9 04:42:24 10° NNE 04:46:46 28° E 04:51:06 10° SSE visible
12 Oct 3.1 06:21:07 10° N 06:26:05 55° WNW 06:31:02 10° SW visible
13 Oct 5.8 04:06:28 10° NE 04:09:19 15° E 04:12:10 10° ESE visible
13 Oct 3.1 05:44:02 10° NNE 05:49:10 82° ESE 05:54:16 10° SSW visible
14 Oct 4.2 05:07:12 10° NNE 05:12:04 43° E 05:16:53 10° S visible
14 Oct 3.6 06:46:24 10° N 06:51:02 36° WNW 06:55:39 10° SW visible
15 Oct 5.2 04:30:44 10° NE 04:34:45 23° E 04:38:46 10° SE visible
15 Oct 3.0 06:09:11 10° N 06:14:14 66° WNW 06:19:16 10° SSW visible
16 Oct 5.9 03:55:19 10° ENE 03:57:15 12° E 03:59:10 10° ESE visible
16 Oct 3.3 05:32:10 10° NNE 05:37:16 67° ESE 05:42:19 10° S visible
